Starlink 6089

operational
NORAD ID: 56096 Int'l Des: 2023-046 Owner: SPXS Country: US Constellation: starlink
LEOCIRCULAR

About Starlink 6089

Description loading...

Live Position

Loading 3D Globe...

Upcoming Passes

Altitude History

Altitude vs Time

uPlot chart will show altitude changes over time

Two-Line Element Set

1 56096U 23046D 26066.32357535 .00002072 00000-0 16838-3 0 9994
2 56096 43.0047 172.0176 0001248 268.4788 91.5912 15.02535727161707
Epoch: Mar 7, 2026 • Age: 16 hours

Current Status

Altitude 560.0 km
Velocity 7.58 km/s
Sub-Earth Point -7.78°S, 121.08°E
Launch Date Mar 29, 2023
Age 2.9 years
Type internet

Technical Details

Classification Payload
Mass 305.00 kg
Dry Mass 290.00 kg
Total Mass 305.00 kg
Length 0.20 m
Diameter 2.80 m
Span 9.00 m
Shape Box + pan
Manufacturer SPXS
Bus Type Starlink
Phase Status In Orbit
Owner/State SPXS/US

Large Constellations

Loading constellations...